Вернуться в каталог

FENGYUN 1C DEB

АктивенSSO
NORAD 30755·DEBRIS·🇨🇳 China

Запущен May 10, 1999 с Taiyuan Satellite Launch Center

Loading…

Ближайшие Пролёты (ближайшие 24 часа)

TLE

СвежийSource: Space-Track

Эпоха: Sep 13, 2026, 21:49 UTC

1 30755U 99025ATR 26256.90968950  .00000854  00000-0  22027-3 0  9995
2 30755  98.2750 249.4979 0150254 151.2546 277.5566 14.45984053 24061

Отслеживайте FENGYUN 1C DEB в реальном времени с AllMySat

Download on the App Store